www.pogodaiklimat.ru

Погода и климат >> Архив погоды >> Индонезия >> Tanah Merah


ПОГОДА в Tanah Merah

  • Прогноз погоды в Tanah Merah
  • Монитор погоды в Tanah Merah
  • Климат города

АРХИВ ПОГОДЫ в Tanah Merah

Время (UTC), дата Ветер
(напр.,м/с)
 
Видим.   Явления Облачность Т
(С)
Тd
(С)
f
(%)
Тe
(С)
Тes
(С)
Комфортность P
(гПа)
Po
(гПа)
Тmin
(С)
Tmax
(С)
R
(мм)
R24
(мм)
S
(см)
15 9.10 штиль 0 10 км 6/5 300 м
[Sc Ac trans Ci fib]
+25.1 +22.8 87 +33 +33 очень
душно
1010.1 1006.9
18 9.10 штиль 0 10 км 6/5 300 м
[Sc Ac trans Ci fib]
+23.1 +21.4 90 +31 +31 очень
душно
1009.4 1006.2
21 9.10 штиль 0 8000 м 9/8 270 м
[Sc Ac lent Ci sp]
+22.8 +21.4 92 +30 +30 очень
душно
1011.0 1007.8
00 10.10 В 3 5000 м 9/8 240 м
[Sc Ac lent Ci sp]
+26.8 +23.1 80 +36 +37 очень
душно
1011.9 1008.7 +22.5
03 10.10 В 2 8000 м 8/6 270 м
[Cu Sc Ac lent Ci sp]
+30.5 +23.2 65 +41 +47 опасность
перегрева
1009.7 1006.6
06 10.10 ЮЗ 2 10 км 6/5 300 м
[Cu Sc Ac trans Ci fib]
+32.7 +22.8 56 +43 +47 опасность
перегрева
1006.9 1003.8
09 10.10 штиль 0 10 км 6/5 360 м
[Sc Ac lent Ci fib]
+29.7 +22.9 67 +40 +40 очень
душно
1008.3 1005.2
12 10.10 штиль 0 10 км 8/5 330 м
[Sc Ac lent Ci fib]
+26.7 +23.4 82 +36 +36 очень
душно
1011.2 1008.0 +33.4
15 10.10 штиль 0 8000 м 8/6 270 м
[Sc Ac lent Ci sp]
+25.4 +23.3 88 +34 +34 очень
душно
1010.5 1007.3
18 10.10 штиль 0 8000 м 9/8 270 м
[Sc Ac cuf Ci sp]
+24.4 +22.8 91 +32 +32 очень
душно
1010.0 1006.8
21 10.10 штиль 0 8000 м 9/8 270 м
[Sc Ac lent Ci sp]
+24.3 +22.9 92 +32 +32 очень
душно
1011.0 1007.8
00 11.10 В 3 10 км 9/8 240 м
[Sc Ac lent Ci sp]
+27.7 +23.9 80 +38 +40 очень
душно
1012.2 1009.0 +23.9
03 11.10 СЗ 2 10 км 9/8 270 м
[Cu Sc Ac lent Ci sp]
+29.0 +23.4 72 +39 +43 очень
душно
1010.2 1007.0
06 11.10 З 2 10 км 8/6 300 м
[Cu Sc Ac trans Ci sp]
+31.5 +23.6 63 +43 +46 опасность
перегрева
1008.2 1005.1
09 11.10 штиль 0 10 км 8/6 300 м
[Cu Sc Ac trans Ci sp]
+29.2 +23.9 73 +40 +40 очень
душно
1009.8 1006.6
12 11.10 штиль 0 10 км 8/6 300 м
[Cu Sc Ac trans Ci sp]
+26.8 +24.5 87 +38 +38 очень
душно
1012.1 1008.9 +32.6
15 11.10 Ю 1 1000 м в посл. час дождь 9/8 270 м
[Cb cap Ac lent Ci sp]
+26.0 +24.6 92 +37 +37 очень
душно
1011.6 1008.4 1
18 11.10 СЗ 1 5000 м 9/8 270 м
[Sc Ac lent Ci sp]
+25.3 +24.3 94 +35 +35 очень
душно
1011.1 1007.9 1
21 11.10 штиль 0 5000 м 10/8 240 м
[Sc Ac lent Ci sp]
+25.1 +24.2 95 +35 +35 очень
душно
1012.1 1008.9
00 12.10 ЮВ 2 6000 м 10/8 240 м
[Sc Ac lent Ci sp]
+27.7 +24.9 85 +40 +41 очень
душно
1013.2 1010.0 +24.8 1
03 12.10 ЮВ 1 5000 м 9/8 240 м
[Sc Ac lent Ci sp]
+31.1 +24.7 69 +44 +48 опасность
перегрева
1010.5 1007.4
06 12.10 В 2 5000 м 9/8 240 м
[Cu Sc Ac lent Ci sp]
+32.0 +24.6 65 +45 +46 опасность
перегрева
1008.2 1005.1
09 12.10 З 2 9000 м гроза без осадков 9/8 270 м
[Cb cap Ac lent Ci sp]
+27.6 +24.6 84 +39 +39 очень
душно
1009.2 1006.0
12 12.10 СЗ 1 8000 м зарница {гроза} 9/8 270 м
[Cb cap Ac cuf Ci sp]
+25.9 +24.5 92 +36 +36 очень
душно
1010.9 1007.7 +32.1
15 12.10 штиль 0 8000 м зарница 9/8 270 м
[Cb cap Ac cuf Ci sp]
+25.4 +24.5 95 +36 +36 очень
душно
1010.2 1007.0
18 12.10 штиль 0 8000 м 9/8 270 м
[Cu Sc Ac lent Ci sp]
+25.3 +24.4 95 +35 +35 очень
душно
1009.2 1006.0
21 12.10 штиль 0 4000 м слабый дождь 10/8 270 м
[Sc Ac As Ci sp]
+25.0 +24.5 97 +35 +35 очень
душно
1011.6 1008.4 0.0
00 13.10 СВ 2 8000 м {дождь} 9/8 240 м
[Sc Ac cuf Ci sp]
+26.5 +24.7 90 +38 +40 очень
душно
1013.0 1009.8 +24.8 0.4
03 13.10 СВ 3 8000 м 9/8 270 м
[Cu Sc Ac As Ci sp]
+28.6 +24.6 79 +41 +44 опасность
перегрева
1010.7 1007.5
06 13.10 В 2 10 км 8/6 300 м
[Cu Sc Ac trans Ci fib]
+31.0 +23.9 66 +43 +45 опасность
перегрева
1008.2 1005.1
09 13.10 С 2 10 км 8/6 270 м
[Sc Ac As Ci sp]
+28.1 +24.9 83 +40 +40 очень
душно
1009.8 1006.6
12 13.10 СЗ 1 9000 м 6/5 270 м
[Sc Ac As Ci sp]
+26.4 +24.6 90 +37 +37 очень
душно
1010.9 1007.7 +32.0
15 13.10 Ю 1 9000 м 6/5 270 м
[Sc Ac As Ci sp]
+24.9 +23.9 94 +34 +34 очень
душно
1010.6 1007.4
18 13.10 штиль 0 9000 м 9/8 270 м
[Sc Ac As Ci sp]
+23.9 +23.2 96 +32 +32 очень
душно
1009.4 1006.2
21 13.10 ЮВ 1 8000 м {дождь} 9/8 270 м
[Sc Ac lent Ci sp]
+23.9 +23.4 97 +32 +32 очень
душно
1011.4 1008.2 0.2
00 14.10 С 1 7000 м 9/8 270 м
[Sc Ac lent Ci sp]
+27.1 +25.3 90 +39 +42 очень
душно
1012.5 1009.3 +23.7
03 14.10 ЮЗ 1 8000 м {дождь} 9/8 270 м
[Sc Ac lent Ci sp]
+30.6 +25.2 73 +44 +48 опасность
перегрева
1009.8 1006.7 0.4
06 14.10 Ю 2 10 км 6/5 300 м
[Cu Sc Ac trans Ci fib]
+34.5 +23.8 54 +46 +50 опасность
перегрева
1006.8 1003.7 0.4
09 14.10 штиль 0 10 км зарница 8/6 300 м
[Cb cap Ac lent Ci sp]
+30.8 +24.5 69 +43 +43 опасность
перегрева
1008.2 1005.1
12 14.10 СЗ 2 8000 м зарница 8/8 300 м
[Cb cap Ac lent Ci sp]
+27.8 +25.4 87 +41 +41 опасность
перегрева
1010.8 1007.6 +35.0
15 14.10 СВ 5 800 м гроза, ливневой дождь 10/10 240 м
[Cb cap]
+24.9 +23.9 94 +34 +34 очень
душно
1011.4 1008.2 34
18 14.10 Ю 1 2000 м гроза с градом 10/6 300 м
[Cb cap Ac As]
+23.1 +22.4 96 +32 +32 очень
душно
1011.0 1007.8 25
21 14.10 штиль 0 1000 м слабый дождь {гроза} 10/9 240 м
[Cb cap As op]
+23.2 +22.7 97 +32 +32 очень
душно
1012.7 1009.5 6
00 15.10 С 2 7000 м в посл. час дождь {гроза} 9/8 240 м
[Sc Ac As Ci sp]
+24.9 +23.9 94 +34 +36 очень
душно
1013.4 1010.2 +22.8 3
03 15.10 З 2 8000 м 9/8 240 м
[Cu Sc Ac trans Ci sp]
+29.9 +25.2 76 +43 +47 опасность
перегрева
1011.4 1008.3
06 15.10 ЮЗ 2 9000 м 8/6 270 м
[Cu Sc Ac trans Ci sp]
+31.2 +24.8 69 +44 +47 опасность
перегрева
1008.4 1005.3
09 15.10 З 2 9000 м 8/6 270 м
[Cu Sc Ac trans Ci sp]
+28.1 +24.5 81 +40 +40 очень
душно
1009.8 1006.6
12 15.10 С 2 9000 м зарница 8/6 270 м
[Cb cap Ac lent Ci sp]
+25.9 +24.3 91 +36 +36 очень
душно
1011.8 1008.6 +31.9
15 15.10 штиль 0 9000 м зарница 8/6 270 м
[Cb cap Ac lent Ci sp]
+25.3 +24.3 94 +35 +35 очень
душно
1011.2 1008.0
18 15.10 штиль 0 5000 м 8/6 270 м
[Cu Sc Ac lent Ci sp]
+25.0 +24.1 95 +34 +34 очень
душно
1010.5 1007.3
21 15.10 ЮЗ 4 800 м сильный дождь 10/8 210 м
[Sc As op]
+24.4 +23.7 96 +33 +33 очень
душно
1011.9 1008.7 13
00 16.10 штиль 0 5000 м в посл. час дождь {гроза} 10/8 210 м
[Sc As op]
+24.1 +23.6 97 +33 +33 очень
душно
1013.4 1010.2 +23.2 25
03 16.10 С 2 7000 м 9/8 240 м
[Cu Sc Ac lent Ci sp]
+27.2 +24.8 87 +39 +42 очень
душно
1011.1 1007.9
06 16.10 З 2 7000 м 9/8 240 м
[Cu Sc Ac lent Ci sp]
+28.1 +23.9 78 +39 +40 очень
душно
1008.2 1005.0

 

Местоположение метеостанции Tanah Merah (Индонезия): широта -6.10 долгота 140.30 высота над уровнем моря 16 м.

В архиве по умолчанию представлена погода в Tanah Merah за последнюю неделю. Архивные данные за месяц целиком и за предыдущие месяцы, начиная с января 2011 года, Вы можете получить, выбрав интересующий диапазон дат из раскрывающегося списка и нажав кнопку "Ввод!".


*Определитесь, кто Вы:
робот инопланетянин человек

Внимание! Время в таблицах - всемирное. Для получения местного времени необходимо прибавить поправку, которая в Tanah Merah равна 9 ч.

Смотрите также архив погоды в соседних городах и на ближайших метеорологических станциях:

Погода в Merauke (Индонезия) (264 км)
Погода в Wamena (Индонезия) (271 км)
Погода в Kokonao (Индонезия) (338 км)
Погода в Sentani Airport (Индонезия) (392 км)
Погода в Jayapura (Индонезия) (393 км)
Погода в Enarotali (Индонезия) (498 км)
Погода в Sarmi (Индонезия) (507 км)
Погода в Coconut Island (Квинсленд, Австралия) (535 км)
Погода в Horn Island (Квинсленд, Австралия) (544 км)
Погода в Nabire (Индонезия) (615 км)

Пояснения к столбцам:

Ветер - указаны скорость ветра в м/с - средняя за 10 мин, порывы в срок и между сроками (в фигурных скобках) и направление, откуда дует ветер: С - северный, СВ - северо-восточный, В - восточный, ЮВ - юго-восточный, Ю - южный, ЮЗ - юго-западный, З - западный, СЗ - северо-западный.
Видимость - горизонтальная дальность видимости в метрах или километрах. При видимости от 1 до 10 км при отсутствии осадков обычно наблюдается дымка, при ухудшении видимости до 1 км и менее - туман. В сухую погоду видимость может ухудшаться дымом, пылью или мглою.
Явления - указаны атмосферные явления, наблюдавшиеся в срок или в последний час перед сроком; фигурными скобками обозначены явления, наблюдавшиеся между сроками (за 1-3 часа до срока); квадратными скобками обозначены град или гололедные отложения с указанием их диаметра в мм.
Облачность - указаны через наклонную черту общая и нижняя облачность в баллах и высота нижней границы облаков в метрах; квадратными скобками обозначены формы облаков: Ci - перистые, Cs - перисто-слоистые, Cc - перисто-кучевые, Ac - высококучевые, As - высокослоистые, Sc - слоисто-кучевые, Ns - слоисто-дождевые, Cu - кучевые, Cb - кучево-дождевые. Подробнее классификацию облаков см. в Атласе облаков (PDF).
T - Температура воздуха - температура, измеренная на высоте 2 м над землей.
Td - Температура точки росы - температура, при понижении до которой содержащийся в воздухе водяной пар достигнет насыщения.
f - Относительная влажность воздуха - влажноcть воздуха, измеренная на высоте 2 м над землей.
Te - Эффективная температура - температура, которую ощущает одетый по сезону человек в тени. Характеристика душности погоды. При расчете учитывается влияние влажности воздуха и скорости ветра на теплоощущения человека.
Tes - Эффективная температура на солнце - температура, которую ощущает человек, с поправкой на солнечный нагрев. Характеристика знойности погоды. Зависит от высоты солнца над горизонтом, облачности и скорости ветра. Ночью, в пасмурную погоду, а также при ветре 12 м/с и более поправка равна нулю.
P - Атмосферное давление - приведенное к уровню моря атмосферное давление.
Po - Атмосферное давление - измеренное на уровне метеостанции атмосферное давление.
Tmin - Минимальная температура - минимум температуры воздуха на высоте 2 м над землей.
Tmax - Максимальная температура - максимум температуры воздуха на высоте 2 м над землей.
R - Количество осадков - Количество выпавших осадков за период времени, мм. При наведении курсора мыши на число - период времени, за который выпало указанное количество осадков.
R24 - Количество осадков - Количество выпавших осадков за 24 часа, мм.
S - Снежный покров - Высота снежного покрова, см. При наведении курсора мыши на число - состояние снежного покрова и степень покрытия местности в баллах.